Flag for Norway Weather past 2 weeks in Spydeberg, Norway

Now
36 °F

Clear.


Feels Like: 36 °F
Forecast: 26 / 44 °F
Wind: 1 mph from North

Location: Rygge

Current Time: Mar 31, 2015 at 11:25:20 PM

Latest Report: Mar 31, 2015 at 10:50 PM


Visibility: 10 mi

Pressure: 29.12 "Hg

Humidity: 93%

Dew point: 34 °F

Location of SpydebergLocation

Historic Weather in Spydeberg — Graph

°F

Spydeberg temperature yesterday

Maximum temperature yesterday: 45 °F (at 5:20 PM)
Minimum temperature yesterday: 36 °F (at 11:20 PM)
Average temperature yesterday: 39 °F

Past Weeks' High & Low Weather Summary

 TemperatureHumidityPressure
High52 °F (Mar 24, 1:20 PM)100% (Mar 18, 10:50 AM)30.74 "Hg (Mar 18, 10:50 AM)
Low25 °F (Mar 28, 5:20 AM)28% (Mar 21, 4:50 PM)28.94 "Hg (Mar 30, 2:20 AM)
Average37 °F83%29.88 "Hg
* Reported Mar 16 8:20 PM — Mar 31 9:50 PM, Spydeberg, Weather by CustomWeather, © 2015

Note: Actual official high and low records may vary slightly from our data, if they occured in-between our weather recording intervals... More about our weather records

Advertising

Spydeberg weather history for previous 24 hours

 ConditionsComfort  
Time TempWeatherWind HumidityBarometerVisibility
9:50 PM
Tue, Mar 31
37 °FPassing clouds.8 mph87%29.12 "HgN/A
9:20 PM37 °FClear.8 mph87%29.12 "Hg10 mi
8:50 PM37 °FSunny.8 mph81%29.09 "Hg10 mi
8:20 PM37 °FSunny.8 mph81%29.09 "Hg10 mi
7:50 PM39 °FSunny.8 mph70%29.09 "Hg10 mi
7:20 PM39 °FSunny.8 mph65%29.09 "Hg10 mi
6:50 PM41 °FSunny.8 mph57%29.06 "Hg10 mi
6:20 PM41 °FSunny.9 mph66%29.06 "Hg10 mi
5:50 PM41 °FSunny.9 mph66%29.06 "Hg10 mi
5:20 PM43 °FSunny.10 mph53%29.03 "Hg10 mi
4:50 PM43 °FSunny.8 mph57%29.03 "Hg10 mi
4:20 PM45 °FPassing clouds.8 mph53%29.03 "HgN/A
3:50 PM45 °FPassing clouds.7 mph42%29.03 "HgN/A
3:20 PM43 °FPassing clouds.8 mph49%29.03 "HgN/A
2:50 PM43 °FPassing clouds.8 mph49%29.03 "HgN/A
2:20 PM43 °FPassing clouds.8 mph49%29.03 "HgN/A
1:50 PM41 °FPassing clouds.6 mph53%29.03 "HgN/A
1:20 PM41 °FPassing clouds.7 mph53%29.03 "HgN/A
12:50 PM41 °FPassing clouds.6 mph53%29.00 "HgN/A
12:20 PM41 °FSunny.5 mph61%29.00 "Hg10 mi
11:50 AM41 °FSunny.2 mph66%29.00 "Hg10 mi
11:20 AM41 °FSunny.No wind61%29.00 "Hg10 mi
10:50 AM39 °FSunny.2 mph70%29.00 "Hg10 mi
10:20 AM37 °FSunny.2 mph70%29.00 "Hg10 mi
9:50 AM36 °FPassing clouds.3 mph81%29.00 "HgN/A
9:20 AM36 °FSunny.1 mph81%28.97 "Hg10 mi
8:50 AM36 °FSunny.No wind81%28.97 "Hg10 mi
8:20 AM30 °FSunny.No wind93%28.97 "Hg10 mi
7:50 AM28 °FSunny.1 mph93%28.97 "Hg10 mi
7:20 AM30 °FClear.2 mph86%28.97 "Hg10 mi
6:50 AM28 °FPassing clouds.5 mph93%28.97 "HgN/A
6:20 AM28 °FPassing clouds.3 mph93%29.00 "HgN/A
5:50 AM28 °FChilly.3 mph93%29.00 "HgN/A
5:20 AM28 °FChilly.1 mph93%29.00 "HgN/A
4:50 AM32 °FChilly.3 mph87%29.03 "HgN/A
4:20 AM28 °FChilly.5 mph93%29.06 "HgN/A
3:50 AM32 °FChilly.5 mph87%29.06 "HgN/A
3:20 AM32 °FChilly.6 mph87%29.06 "HgN/A
2:50 AM34 °FChilly.6 mph81%29.06 "HgN/A
2:20 AM30 °FChilly.1 mph86%29.09 "HgN/A
1:50 AM36 °FChilly.3 mph81%29.09 "HgN/A
1:20 AM36 °FChilly.5 mph81%29.09 "HgN/A
12:50 AM36 °FChilly.8 mph81%29.12 "HgN/A
12:20 AM36 °FChilly.9 mph87%29.12 "HgN/A
11:50 PM
Mon, Mar 30
36 °FChilly.6 mph93%29.12 "HgN/A
11:20 PM36 °FChilly.8 mph100%29.12 "HgN/A
Weather by CustomWeather, © 2015

See weather overviewHow to use our weather pages